Regional Weather Roundup
Issued by NWS Cleveland, OH

Home | Current Version | Previous Version | Text Only | Print | Product List | Glossary Off
Versions: 1 2 3 4 5 6 7 8 9 10 11 12 13 14 15 16 17 18 19 20 21 22 23 24 25 26 27 28 29 30 31 32 33 34 35 36 37 38 39 40 41 42 43 44 45 46 47 48 49 50

000
ASUS41 KCLE 301000
RWRCLE
OHIO REGIONAL WEATHER ROUNDUP
NATIONAL WEATHER SERVICE WILMINGTON, OH
600 AM EDT THU OCT 30 2014

NOTE: "FAIR" INDICATES FEW OR NO CLOUDS BELOW 12,000 FEET WITH NO
SIGNIFICANT WEATHER AND/OR OBSTRUCTIONS TO VISIBILITY.

OHZ001>008-015>018-024>027-034-035-043-044-301100-
   NORTHWEST OHIO

CITY           SKY/WX    TMP DP  RH WIND       PRES   REMARKS
DEFIANCE       PTCLDY    40  36  86 CALM      30.14R
FINDLAY        CLOUDY    42  37  82 NW6       30.12R
TOLEDO EXPRESS FAIR      37  34  89 NW3       30.13R
TOLEDO METCALF CLEAR     36  33  89 NW5       30.14R
LIMA           CLOUDY    43  37  79 NW7       30.13R
$$

OHZ009>014-019>023-028>033-038-089-301100-
   NORTHEAST OHIO

CITY           SKY/WX    TMP DP  RH WIND       PRES   REMARKS
CLE-HOPKINS    CLOUDY    42  40  92 W6        30.11R
CLE-LAKEFRONT  MOCLDY   N/A N/A N/A N10       30.08R
CUY CO. ARPT   NOT AVBL
LORAIN-ELYRIA  CLOUDY    40  38  93 W7        30.11R
ASHTABULA      CLOUDY    44  41  89 W3        30.07R
AKRON-CANTON   PTCLDY    39  35  86 W5        30.08R
WOOSTER        NOT AVBL
MANSFIELD      CLEAR     37  36  96 W6        30.10R
YOUNGSTOWN     LGT RAIN  42  40  92 W7        30.07R
$$

OHZ042-051>053-060>062-070>072-077>081-301100-
  SOUTHWEST OHIO

CITY           SKY/WX    TMP DP  RH WIND       PRES   REMARKS
CINC-COVINGTON PTCLDY    44  34  67 NW6       30.14R
CINC-LUNKEN    CLEAR     37  33  85 CALM      30.16R
HAMILTON       CLOUDY    41  39  93 CALM      30.16R
DAYTON         NOT AVBL
WRIGHT-PAT AFB CLOUDY    43  35  74 NW3       30.14R
DAYTON GENERAL CLOUDY    43  35  73 NW3       30.13R
WILMINGTON     CLOUDY    43  34  70 NW7       30.12R
$$

OHZ036-037-039>041-045>050-054>059-063>069-073>076-082>088-301100-
  CENTRAL AND SOUTHEAST OHIO

CITY           SKY/WX    TMP DP  RH WIND       PRES   REMARKS
COLUMBUS       MOCLDY    41  34  76 NW6       30.11R
OSU AIRPORT    CLOUDY    42  35  76 NW6       30.12R
BOLTON FIELD   NOT AVBL
RICKENBACK AFB NOT AVBL
NEWARK         CLEAR     34  30  85 CALM      30.11R
MARION         CLEAR     38  35  89 NW3       30.12R
LANCASTER      CLEAR     35  33  92 CALM      30.12R
ZANESVILLE     CLEAR     32  29  88 CALM      30.11R
NEW PHILLY     CLEAR     36  33  89 CALM      30.11R
$$



USA.gov is the U.S. government's official web portal to all federal, state and local government web resources and services.